Regional Weather Roundup
Issued by NWS

Home | Current Version | Previous Version | Text Only | Print | Product List | Glossary Off
Versions: 1 2 3 4 5 6 7 8 9 10 11 12 13 14 15 16 17 18 19 20 21 22 23 24 25 26 27 28 29 30 31 32 33 34 35 36 37 38 39 40 41 42 43 44 45 46 47 48 49 50

000
ASUS43 KBIS 171310
RWRND

NORTH DAKOTA REGIONAL WEATHER ROUNDUP
NATIONAL WEATHER SERVICE BISMARCK ND
800 AM CDT THU APR 17 2014

NOTE: "FAIR" INDICATES FEW OR NO CLOUDS BELOW 12,000 FEET WITH NO
SIGNIFICANT WEATHER AND/OR OBSTRUCTIONS TO VISIBILITY.


NDZ001>003-009>011-017-171400-
NORTHWEST NORTH DAKOTA

CITY           SKY/WX    TMP DP  RH WIND       PRES   REMARKS
WILLISTON      CLOUDY    27  21  78 SE14      30.21S WCI  16
MINOT          CLOUDY    23  12  62 E9        30.31S WCI  13
MINOT AFB      PTSUNNY   22  15  72 SE7       30.31S WCI  14
$$

NDZ018>021-031>035-040>046-171400-
SOUTHWEST NORTH DAKOTA

CITY           SKY/WX    TMP DP  RH WIND       PRES   REMARKS
BISMARCK       CLOUDY    24  16  71 E7        30.32S WCI  16
DICKINSON      CLOUDY    27  18  69 SE18      30.18R WCI  14
GARRISON         N/A     24  15  68 E9        30.29S WCI  14
HETTINGER ARPT LGT SNOW  26  23  88 SE10      30.20R FOG     WCI  16
$$

NDZ004>008-012>016-024-026-027-054-171400-
NORTHEAST NORTH DAKOTA

CITY           SKY/WX    TMP DP  RH WIND       PRES   REMARKS
GRAND FORKS    SUNNY     24  19  81 N9        30.36R WCI  14
GRND FRKS AFB  SUNNY     24  17  75 N7        30.37R WCI  16
DEVILS LAKE    SUNNY     19  10  68 CALM      30.33S
$$

NDZ022-023-025-028>030-036>039-047>053-171400-
SOUTHEAST NORTH DAKOTA

CITY           SKY/WX    TMP DP  RH WIND       PRES   REMARKS
FARGO          SUNNY     25  19  78 N9        30.33R WCI  15
JAMESTOWN      SUNNY     21  17  84 N6        30.32R WCI  13
$$




USA.gov is the U.S. government's official web portal to all federal, state and local government web resources and services.